SIA441 VNKT-WSSS

Flight info

Callsign SIA441
Flight time N/A
Altitude 33000
Route IGRIS1D LALBA R325 CEA L507 BGO M626 IKOGA DCT PASVA Y514 NUFFA DCT PIBAP DCT PASPU DCT NYLON DCT POSUB DCT SANAT
Aircraft B38M/M-SDE1E2E3FGHIJ4J7M3P2RWYZ/EB1D1

Departure

Time N/A
Airport Tribhuvan International Airport (VNKT)

Arrival

Time 2026-05-01 10:38
Airport Singapore Changi Airport (WSSS)
Time Latitude Longitude Altitude Speed Heading
2026-05-01 07:23 20.37652 92.05929 36840 ft 489 kts 129°
2026-05-01 07:24 20.31783 92.14794 36841 ft 487 kts 129°
2026-05-01 07:24 20.27889 92.20686 36845 ft 487 kts 129°
2026-05-01 07:25 20.23992 92.26572 36844 ft 486 kts 129°
2026-05-01 07:25 20.20086 92.32439 36846 ft 486 kts 129°
2026-05-01 07:26 20.16181 92.38317 36844 ft 487 kts 129°
2026-05-01 07:26 20.12248 92.44253 36845 ft 489 kts 129°
2026-05-01 07:27 20.08336 92.50152 36843 ft 488 kts 129°
2026-05-01 07:27 20.04421 92.56037 36841 ft 487 kts 129°
2026-05-01 07:28 20.00514 92.61906 36848 ft 487 kts 129°
2026-05-01 07:28 19.96618 92.67755 36847 ft 485 kts 129°
2026-05-01 07:29 19.92730 92.73600 36845 ft 484 kts 130°
2026-05-01 07:29 19.88826 92.79455 36856 ft 485 kts 129°
2026-05-01 07:30 19.84907 92.85313 36866 ft 485 kts 129°
2026-05-01 07:30 19.81022 92.91124 36861 ft 483 kts 129°
2026-05-01 07:31 19.77134 92.96936 36864 ft 484 kts 130°
2026-05-01 07:32 19.67384 93.11458 36871 ft 483 kts 129°
2026-05-01 07:33 19.61524 93.20164 36866 ft 483 kts 129°
2026-05-01 07:33 19.55693 93.28840 36863 ft 481 kts 129°
2026-05-01 07:34 19.49858 93.37505 36862 ft 481 kts 129°
2026-05-01 07:35 19.45980 93.43252 36863 ft 480 kts 129°
2026-05-01 07:35 19.42105 93.48995 36862 ft 479 kts 129°
2026-05-01 07:36 19.38214 93.54746 36863 ft 478 kts 129°
2026-05-01 07:36 19.34335 93.60474 36864 ft 478 kts 129°
2026-05-01 07:37 19.28553 93.69006 36862 ft 477 kts 129°
2026-05-01 07:37 19.24691 93.74693 36862 ft 475 kts 129°
2026-05-01 07:38 19.20813 93.80411 36857 ft 476 kts 129°
2026-05-01 07:39 19.15042 93.88914 36850 ft 475 kts 129°
2026-05-01 07:39 19.09261 93.97411 36844 ft 472 kts 129°
2026-05-01 07:40 19.05396 94.03085 36845 ft 472 kts 129°
2026-05-01 07:40 19.01554 94.08711 36837 ft 471 kts 129°
2026-05-01 07:41 18.97716 94.14326 36841 ft 472 kts 129°
2026-05-01 07:42 18.91952 94.22757 36842 ft 471 kts 129°
2026-05-01 07:42 18.88120 94.28361 36843 ft 471 kts 129°
2026-05-01 07:43 18.84291 94.33959 36862 ft 471 kts 128°
2026-05-01 07:43 18.78523 94.42374 36887 ft 471 kts 128°
2026-05-01 07:44 18.70834 94.53558 36913 ft 469 kts 128°
2026-05-01 07:45 18.67000 94.59137 36918 ft 469 kts 128°
2026-05-01 07:45 18.63148 94.64729 36935 ft 469 kts 128°
2026-05-01 07:46 18.59308 94.70303 36953 ft 469 kts 128°
2026-05-01 07:47 18.53654 94.78698 36958 ft 469 kts 127°
2026-05-01 07:47 18.49966 94.84360 36936 ft 469 kts 126°
2026-05-01 07:48 18.44431 94.92841 36885 ft 468 kts 126°
2026-05-01 07:48 18.40697 94.98531 36852 ft 469 kts 126°
2026-05-01 07:49 18.35130 95.06984 36835 ft 469 kts 127°
2026-05-01 07:50 18.31424 95.12607 36828 ft 469 kts 127°
2026-05-01 07:50 18.25708 95.20991 36819 ft 469 kts 128°
2026-05-01 07:51 18.21774 95.26490 36817 ft 468 kts 129°
2026-05-01 07:52 18.15883 95.34711 36815 ft 469 kts 128°
2026-05-01 07:52 18.11951 95.40215 36810 ft 469 kts 128°
2026-05-01 07:53 18.06056 95.48483 36817 ft 470 kts 128°
2026-05-01 07:53 18.02149 95.53970 36817 ft 470 kts 128°
2026-05-01 07:55 17.92286 95.67796 36795 ft 471 kts 128°
2026-05-01 07:56 17.82440 95.81558 36798 ft 472 kts 128°
2026-05-01 07:57 17.76469 95.89889 36799 ft 474 kts 128°
2026-05-01 07:58 17.68539 96.00972 36805 ft 476 kts 128°
2026-05-01 07:59 17.60559 96.12095 36806 ft 475 kts 129°
2026-05-01 08:00 17.48594 96.28725 36813 ft 475 kts 129°
2026-05-01 08:01 17.40581 96.39812 36806 ft 476 kts 129°
2026-05-01 08:02 17.34540 96.48141 36808 ft 474 kts 131°
2026-05-01 08:03 17.27089 96.54797 36973 ft 466 kts 155°
2026-05-01 08:03 17.24213 96.56357 37448 ft 462 kts 157°
2026-05-01 08:03 17.18429 96.59272 38206 ft 460 kts 158°
2026-05-01 08:04 17.12608 96.62175 38785 ft 461 kts 157°
2026-05-01 08:04 17.06848 96.65112 38802 ft 458 kts 158°
2026-05-01 08:05 16.98299 96.69573 38811 ft 457 kts 157°
2026-05-01 08:06 16.89757 96.74051 38811 ft 455 kts 158°
2026-05-01 08:07 16.78442 96.79972 38809 ft 453 kts 158°
2026-05-01 08:08 16.69982 96.84391 38819 ft 451 kts 158°
2026-05-01 08:09 16.58739 96.90264 38832 ft 450 kts 158°
2026-05-01 08:09 16.53123 96.93198 38831 ft 449 kts 158°
2026-05-01 08:10 16.41892 96.99043 38833 ft 447 kts 158°
2026-05-01 08:11 16.30778 97.04835 38831 ft 447 kts 158°
2026-05-01 08:12 16.22422 97.09180 38832 ft 445 kts 158°
2026-05-01 08:13 16.14090 97.13504 38825 ft 446 kts 158°
2026-05-01 08:13 16.05737 97.17831 38814 ft 446 kts 158°
2026-05-01 08:14 16.00190 97.20709 38816 ft 444 kts 158°
2026-05-01 08:14 15.94630 97.23601 38813 ft 444 kts 158°
2026-05-01 08:15 15.86318 97.27908 38816 ft 444 kts 158°
2026-05-01 08:16 15.80765 97.30783 38814 ft 442 kts 158°
2026-05-01 08:16 15.75254 97.33630 38816 ft 444 kts 158°
2026-05-01 08:17 15.69696 97.36502 38820 ft 444 kts 158°
2026-05-01 08:17 15.64134 97.39372 38822 ft 446 kts 158°
2026-05-01 08:18 15.58571 97.42252 38824 ft 445 kts 158°
2026-05-01 08:19 15.47484 97.47972 38817 ft 446 kts 158°
2026-05-01 08:19 15.41908 97.50854 38820 ft 445 kts 157°
2026-05-01 08:20 15.36385 97.53787 38821 ft 445 kts 157°
2026-05-01 08:20 15.30864 97.56748 38821 ft 446 kts 157°
2026-05-01 08:21 15.25338 97.59702 38825 ft 445 kts 157°
2026-05-01 08:21 15.19819 97.62646 38830 ft 445 kts 157°
2026-05-01 08:22 15.14285 97.65595 38829 ft 445 kts 157°
2026-05-01 08:22 15.08782 97.68520 38833 ft 445 kts 158°
2026-05-01 08:23 15.03240 97.71466 38827 ft 445 kts 157°
2026-05-01 08:23 14.97702 97.74408 38827 ft 446 kts 157°
2026-05-01 08:24 14.92190 97.77333 38824 ft 446 kts 157°
2026-05-01 08:24 14.86607 97.80295 38814 ft 447 kts 157°
2026-05-01 08:25 14.81100 97.83215 38820 ft 446 kts 157°
2026-05-01 08:25 14.75562 97.86153 38815 ft 446 kts 157°
2026-05-01 08:26 14.70008 97.89093 38816 ft 446 kts 157°
2026-05-01 08:26 14.64493 97.92001 38817 ft 446 kts 158°
2026-05-01 08:27 14.58925 97.94872 38820 ft 446 kts 158°
2026-05-01 08:27 14.53350 97.97726 38823 ft 448 kts 158°
2026-05-01 08:28 14.47763 98.00591 38825 ft 449 kts 158°
2026-05-01 08:28 14.42127 98.03491 38833 ft 449 kts 157°
2026-05-01 08:29 14.36518 98.06376 38837 ft 449 kts 158°
2026-05-01 08:29 14.30926 98.09248 38838 ft 448 kts 158°
2026-05-01 08:30 14.25313 98.12127 38836 ft 448 kts 157°
2026-05-01 08:30 14.19721 98.14995 38836 ft 448 kts 158°
2026-05-01 08:31 14.14127 98.17862 38831 ft 450 kts 157°
2026-05-01 08:31 14.08480 98.20765 38826 ft 450 kts 157°
2026-05-01 08:32 14.02872 98.23747 38821 ft 452 kts 156°
2026-05-01 08:32 13.97292 98.26766 38817 ft 451 kts 156°
2026-05-01 08:33 13.91709 98.29776 38818 ft 452 kts 156°
2026-05-01 08:33 13.86138 98.32768 38824 ft 450 kts 156°
2026-05-01 08:34 13.80539 98.35771 38823 ft 451 kts 156°
2026-05-01 08:34 13.74963 98.38755 38818 ft 451 kts 156°
2026-05-01 08:35 13.69383 98.41737 38816 ft 451 kts 156°
2026-05-01 08:35 13.63803 98.44719 38824 ft 452 kts 156°
2026-05-01 08:36 13.58232 98.47697 38837 ft 451 kts 156°
2026-05-01 08:36 13.52670 98.50671 38850 ft 450 kts 156°
2026-05-01 08:37 13.47088 98.53647 38867 ft 450 kts 156°
2026-05-01 08:37 13.41514 98.56605 38867 ft 450 kts 156°
2026-05-01 08:38 13.35955 98.59544 38862 ft 450 kts 156°
2026-05-01 08:38 13.30363 98.62502 38852 ft 450 kts 156°
2026-05-01 08:39 13.24754 98.65472 38839 ft 453 kts 156°
2026-05-01 08:39 13.19151 98.68439 38838 ft 452 kts 156°
2026-05-01 08:40 13.10755 98.72884 38835 ft 450 kts 156°
2026-05-01 08:40 13.05175 98.75829 38827 ft 449 kts 156°
2026-05-01 08:41 12.99610 98.78767 38831 ft 450 kts 156°
2026-05-01 08:41 12.94014 98.81722 38841 ft 451 kts 156°
2026-05-01 08:42 12.88442 98.84671 38854 ft 451 kts 156°
2026-05-01 08:42 12.82832 98.87633 38864 ft 451 kts 156°
2026-05-01 08:43 12.77239 98.90578 38877 ft 452 kts 156°
2026-05-01 08:43 12.71623 98.93533 38881 ft 453 kts 156°
2026-05-01 08:44 12.65990 98.96497 38873 ft 452 kts 156°
2026-05-01 08:44 12.60383 98.99458 38871 ft 452 kts 156°
2026-05-01 08:45 12.54783 99.02408 38854 ft 453 kts 156°
2026-05-01 08:45 12.49168 99.05361 38848 ft 453 kts 156°
2026-05-01 08:46 12.43526 99.08316 38838 ft 453 kts 156°
2026-05-01 08:46 12.37877 99.11283 38827 ft 454 kts 155°
2026-05-01 08:47 12.32228 99.14249 38822 ft 455 kts 155°
2026-05-01 08:47 12.26560 99.17226 38817 ft 455 kts 156°
2026-05-01 08:48 12.20917 99.20190 38819 ft 456 kts 155°
2026-05-01 08:48 12.15240 99.23167 38822 ft 456 kts 155°
2026-05-01 08:49 12.09590 99.26127 38832 ft 455 kts 155°
2026-05-01 08:49 12.03960 99.29075 38839 ft 456 kts 155°
2026-05-01 08:50 11.98283 99.32043 38842 ft 456 kts 155°
2026-05-01 08:50 11.92594 99.35017 38835 ft 455 kts 155°
2026-05-01 08:51 11.86956 99.37963 38839 ft 455 kts 155°
2026-05-01 08:51 11.81306 99.40917 38835 ft 454 kts 155°
2026-05-01 08:52 11.75657 99.43862 38832 ft 454 kts 155°
2026-05-01 08:52 11.69999 99.46817 38835 ft 455 kts 155°
2026-05-01 08:53 11.64356 99.49769 38825 ft 455 kts 155°
2026-05-01 08:53 11.58699 99.52727 38822 ft 455 kts 155°
2026-05-01 08:54 11.53084 99.55685 38808 ft 455 kts 155°
2026-05-01 08:54 11.47433 99.58664 38796 ft 454 kts 154°
2026-05-01 08:55 11.41801 99.61631 38802 ft 454 kts 154°
2026-05-01 08:55 11.36143 99.64606 38807 ft 454 kts 154°
2026-05-01 08:56 11.30501 99.67572 38812 ft 453 kts 154°
2026-05-01 08:56 11.24872 99.70530 38810 ft 454 kts 154°
2026-05-01 08:57 11.19219 99.73494 38817 ft 456 kts 154°
2026-05-01 08:57 11.13573 99.76457 38817 ft 456 kts 154°
2026-05-01 08:58 11.07875 99.79397 38815 ft 454 kts 155°
2026-05-01 08:58 11.02212 99.82278 38817 ft 454 kts 155°
2026-05-01 08:59 10.96542 99.85159 38819 ft 453 kts 155°
2026-05-01 08:59 10.90857 99.88057 38821 ft 453 kts 155°
2026-05-01 09:00 10.85195 99.90946 38821 ft 454 kts 155°
2026-05-01 09:00 10.79528 99.93834 38821 ft 453 kts 154°
2026-05-01 09:01 10.73892 99.96708 38820 ft 453 kts 155°
2026-05-01 09:01 10.68203 99.99609 38821 ft 453 kts 155°
2026-05-01 09:02 10.62537 100.02494 38820 ft 454 kts 155°
2026-05-01 09:02 10.56894 100.05367 38822 ft 454 kts 155°
2026-05-01 09:03 10.51211 100.08262 38822 ft 453 kts 155°
2026-05-01 09:03 10.45551 100.11140 38822 ft 454 kts 155°
2026-05-01 09:04 10.39869 100.14030 38822 ft 453 kts 155°
2026-05-01 09:04 10.34253 100.16885 38822 ft 453 kts 155°
2026-05-01 09:05 10.28586 100.19762 38822 ft 453 kts 154°
2026-05-01 09:05 10.22917 100.22643 38822 ft 453 kts 155°
2026-05-01 09:06 10.17285 100.25505 38821 ft 453 kts 155°
2026-05-01 09:06 10.11596 100.28392 38822 ft 453 kts 154°
2026-05-01 09:07 10.05933 100.31266 38822 ft 454 kts 154°
2026-05-01 09:07 10.00241 100.34153 38821 ft 453 kts 154°
2026-05-01 09:08 9.94564 100.37031 38821 ft 453 kts 155°
2026-05-01 09:08 9.88901 100.39901 38822 ft 454 kts 154°
2026-05-01 09:09 9.83218 100.42784 38822 ft 454 kts 154°
2026-05-01 09:09 9.77542 100.45665 38822 ft 454 kts 154°
2026-05-01 09:10 9.71877 100.48534 38822 ft 453 kts 154°
2026-05-01 09:10 9.66211 100.51417 38817 ft 454 kts 154°
2026-05-01 09:11 9.60585 100.54317 38807 ft 453 kts 154°
2026-05-01 09:11 9.54931 100.57232 38801 ft 454 kts 154°
2026-05-01 09:12 9.49279 100.60141 38801 ft 456 kts 154°
2026-05-01 09:12 9.43617 100.63054 38801 ft 456 kts 154°
2026-05-01 09:13 9.37908 100.65994 38801 ft 455 kts 154°
2026-05-01 09:13 9.32263 100.68897 38801 ft 455 kts 154°
2026-05-01 09:14 9.26563 100.71825 38801 ft 456 kts 154°
2026-05-01 09:14 9.20850 100.74757 38801 ft 456 kts 154°
2026-05-01 09:15 9.15155 100.77680 38801 ft 456 kts 153°
2026-05-01 09:15 9.09469 100.80599 38801 ft 458 kts 154°
2026-05-01 09:16 9.03743 100.83538 38801 ft 457 kts 153°
2026-05-01 09:17 8.95198 100.87917 38809 ft 457 kts 153°
2026-05-01 09:17 8.86670 100.92290 38817 ft 457 kts 153°
2026-05-01 09:18 8.78133 100.96664 38815 ft 457 kts 153°
2026-05-01 09:19 8.69626 101.01020 38814 ft 455 kts 153°
2026-05-01 09:20 8.61157 101.05356 38815 ft 456 kts 153°
2026-05-01 09:21 8.49822 101.11173 38815 ft 454 kts 152°
2026-05-01 09:21 8.41413 101.15505 38815 ft 451 kts 152°
2026-05-01 09:22 8.30159 101.21301 38822 ft 452 kts 152°
2026-05-01 09:23 8.21775 101.25613 38822 ft 451 kts 152°
2026-05-01 09:24 8.13372 101.29932 38822 ft 447 kts 153°
2026-05-01 09:25 8.02294 101.35623 38807 ft 447 kts 152°
2026-05-01 09:26 7.93911 101.39929 38800 ft 449 kts 152°
2026-05-01 09:26 7.85527 101.44232 38800 ft 450 kts 152°
2026-05-01 09:27 7.77130 101.48542 38799 ft 449 kts 152°
2026-05-01 09:28 7.71539 101.51409 38797 ft 448 kts 152°
2026-05-01 09:28 7.65971 101.54243 38798 ft 448 kts 153°
2026-05-01 09:29 7.57235 101.57797 38796 ft 450 kts 159°
2026-05-01 09:30 7.48354 101.61056 38799 ft 449 kts 159°
2026-05-01 09:30 7.39562 101.64340 38801 ft 449 kts 158°
2026-05-01 09:31 7.33692 101.66559 38801 ft 449 kts 158°
2026-05-01 09:32 7.24869 101.69913 38803 ft 450 kts 158°
2026-05-01 09:32 7.16048 101.73268 38808 ft 450 kts 158°
2026-05-01 09:33 7.10189 101.75494 38815 ft 449 kts 158°
2026-05-01 09:34 7.01380 101.78840 38818 ft 448 kts 158°
2026-05-01 09:34 6.92575 101.82182 38815 ft 448 kts 158°
2026-05-01 09:35 6.83767 101.85525 38818 ft 448 kts 158°
2026-05-01 09:36 6.77906 101.87750 38818 ft 449 kts 158°
2026-05-01 09:36 6.72052 101.89973 38817 ft 450 kts 158°
2026-05-01 09:37 6.66146 101.92213 38819 ft 449 kts 158°
2026-05-01 09:37 6.57346 101.95550 38818 ft 448 kts 158°
2026-05-01 09:38 6.48584 101.98872 38815 ft 448 kts 158°
2026-05-01 09:39 6.39768 102.02213 38805 ft 450 kts 158°
2026-05-01 09:39 6.33864 102.04446 38802 ft 449 kts 158°
2026-05-01 09:40 6.25064 102.07775 38805 ft 449 kts 158°
2026-05-01 09:41 6.19097 102.09835 38800 ft 449 kts 160°
2026-05-01 09:41 6.10117 102.12718 38795 ft 449 kts 160°
2026-05-01 09:42 6.04144 102.14647 38794 ft 450 kts 160°
2026-05-01 09:43 5.92175 102.18566 38800 ft 450 kts 160°
2026-05-01 09:43 5.86184 102.20527 38806 ft 450 kts 160°
2026-05-01 09:44 5.77196 102.23477 38816 ft 452 kts 160°
2026-05-01 09:45 5.71254 102.25518 38817 ft 450 kts 157°
2026-05-01 09:45 5.62525 102.29046 38818 ft 449 kts 155°
2026-05-01 09:46 5.56756 102.31420 38821 ft 449 kts 156°
2026-05-01 09:46 5.50876 102.33803 38824 ft 449 kts 156°
2026-05-01 09:47 5.45063 102.36137 38828 ft 449 kts 156°
2026-05-01 09:47 5.39240 102.38465 38837 ft 450 kts 156°
2026-05-01 09:48 5.33376 102.40803 38850 ft 450 kts 156°
2026-05-01 09:48 5.27501 102.43150 38861 ft 450 kts 156°
2026-05-01 09:49 5.21684 102.45473 38870 ft 449 kts 156°
2026-05-01 09:49 5.15826 102.47808 38869 ft 450 kts 156°
2026-05-01 09:50 5.09983 102.50139 38872 ft 451 kts 156°
2026-05-01 09:50 5.04141 102.52471 38866 ft 451 kts 156°
2026-05-01 09:51 4.98280 102.54813 38859 ft 451 kts 156°
2026-05-01 09:51 4.92432 102.57127 38858 ft 451 kts 156°
2026-05-01 09:52 4.86575 102.59457 38857 ft 451 kts 156°
2026-05-01 09:52 4.80702 102.61810 38866 ft 451 kts 156°
2026-05-01 09:53 4.74871 102.64142 38879 ft 451 kts 156°
2026-05-01 09:53 4.69039 102.66470 38891 ft 451 kts 156°
2026-05-01 09:54 4.63212 102.68795 38900 ft 450 kts 157°
2026-05-01 09:54 4.57371 102.71126 38908 ft 451 kts 156°
2026-05-01 09:55 4.51543 102.73446 38915 ft 451 kts 157°
2026-05-01 09:55 4.45648 102.75791 38930 ft 451 kts 157°
2026-05-01 09:56 4.39808 102.78117 38937 ft 451 kts 157°
2026-05-01 09:56 4.33944 102.80455 38937 ft 451 kts 157°
2026-05-01 09:57 4.28100 102.82779 38934 ft 450 kts 157°
2026-05-01 09:57 4.22279 102.85090 38924 ft 450 kts 157°
2026-05-01 09:58 4.16426 102.87421 38902 ft 451 kts 157°
2026-05-01 09:58 4.10581 102.89748 38881 ft 451 kts 157°
2026-05-01 09:59 4.04754 102.92066 38864 ft 451 kts 157°
2026-05-01 09:59 3.98883 102.94400 38851 ft 451 kts 157°
2026-05-01 10:00 3.93027 102.96724 38863 ft 451 kts 157°
2026-05-01 10:00 3.87173 102.99052 38879 ft 451 kts 157°
2026-05-01 10:01 3.81344 103.01374 38895 ft 451 kts 157°
2026-05-01 10:01 3.75481 103.03706 38898 ft 453 kts 157°
2026-05-01 10:02 3.69559 103.06060 38880 ft 453 kts 157°
2026-05-01 10:02 3.63677 103.08398 38859 ft 453 kts 157°
2026-05-01 10:03 3.57827 103.10719 38843 ft 452 kts 157°
2026-05-01 10:03 3.51927 103.13062 38831 ft 453 kts 157°
2026-05-01 10:04 3.46070 103.15392 38825 ft 453 kts 157°
2026-05-01 10:04 3.40150 103.17750 38825 ft 454 kts 157°
2026-05-01 10:05 3.34281 103.20084 38824 ft 454 kts 156°
2026-05-01 10:05 3.28685 103.23088 38824 ft 452 kts 142°
2026-05-01 10:06 3.23991 103.27316 38827 ft 451 kts 133°
2026-05-01 10:06 3.19653 103.31915 38825 ft 450 kts 131°
2026-05-01 10:07 3.15406 103.36534 38825 ft 450 kts 131°
2026-05-01 10:07 3.11137 103.41129 38806 ft 450 kts 131°
2026-05-01 10:08 3.06893 103.45645 37526 ft 451 kts 132°
2026-05-01 10:08 3.04743 103.47926 37091 ft 449 kts 132°
2026-05-01 10:08 3.02615 103.50179 36641 ft 443 kts 132°
2026-05-01 10:09 3.00507 103.52414 36069 ft 440 kts 131°
2026-05-01 10:09 2.98364 103.54675 35412 ft 450 kts 132°
2026-05-01 10:09 2.96177 103.56984 34644 ft 464 kts 132°
2026-05-01 10:09 2.93974 103.59319 33835 ft 467 kts 132°
2026-05-01 10:10 2.91725 103.61704 32996 ft 467 kts 132°
2026-05-01 10:10 2.89514 103.64050 32262 ft 466 kts 131°
2026-05-01 10:10 2.85269 103.68855 31174 ft 457 kts 128°
2026-05-01 10:11 2.83229 103.71314 30563 ft 455 kts 128°
2026-05-01 10:11 2.81241 103.73742 29951 ft 452 kts 128°
2026-05-01 10:11 2.79243 103.76183 29325 ft 450 kts 128°
2026-05-01 10:11 2.77276 103.78574 28707 ft 448 kts 128°
2026-05-01 10:12 2.75277 103.80990 28088 ft 446 kts 128°
2026-05-01 10:12 2.73964 103.82571 27686 ft 444 kts 128°
2026-05-01 10:12 2.69388 103.88062 26235 ft 437 kts 128°
2026-05-01 10:13 2.67492 103.90328 25640 ft 421 kts 128°
2026-05-01 10:13 2.65638 103.92540 25059 ft 407 kts 128°
2026-05-01 10:13 2.63819 103.94709 24492 ft 403 kts 128°
2026-05-01 10:14 2.60247 103.98977 23339 ft 399 kts 128°
2026-05-01 10:14 2.58473 104.01096 22769 ft 396 kts 128°
2026-05-01 10:14 2.56699 104.03213 22200 ft 394 kts 128°
2026-05-01 10:14 2.54962 104.05286 21655 ft 391 kts 128°
2026-05-01 10:15 2.53146 104.07304 21132 ft 389 kts 133°
2026-05-01 10:15 2.51063 104.08974 20861 ft 382 kts 147°
2026-05-01 10:15 2.48644 104.09981 20830 ft 370 kts 162°
2026-05-01 10:15 2.46136 104.10404 20823 ft 357 kts 171°
2026-05-01 10:16 2.43662 104.10536 20824 ft 349 kts 175°
2026-05-01 10:16 2.41234 104.10562 20823 ft 352 kts 176°
2026-05-01 10:16 2.36298 104.10535 20821 ft 353 kts 176°
2026-05-01 10:17 2.33834 104.10520 20826 ft 353 kts 177°
2026-05-01 10:17 2.28884 104.10504 20820 ft 353 kts 176°
2026-05-01 10:17 2.26409 104.10502 20824 ft 353 kts 176°
2026-05-01 10:18 2.21470 104.10497 20822 ft 354 kts 176°
2026-05-01 10:18 2.19000 104.10497 20826 ft 355 kts 176°
2026-05-01 10:18 2.16528 104.10497 20825 ft 354 kts 176°
2026-05-01 10:19 2.14075 104.10497 20824 ft 353 kts 176°
2026-05-01 10:19 2.11613 104.10496 20824 ft 353 kts 176°
2026-05-01 10:19 2.09141 104.10497 20824 ft 353 kts 176°
2026-05-01 10:20 2.04195 104.10498 20824 ft 352 kts 176°
2026-05-01 10:20 2.01792 104.10497 20817 ft 343 kts 176°
2026-05-01 10:20 1.99421 104.10495 20661 ft 333 kts 176°
2026-05-01 10:20 1.97118 104.10495 20370 ft 329 kts 176°
2026-05-01 10:21 1.94826 104.10504 19954 ft 328 kts 176°
2026-05-01 10:21 1.90265 104.10529 19188 ft 325 kts 176°
2026-05-01 10:21 1.88011 104.10540 18813 ft 324 kts 176°
2026-05-01 10:22 1.83509 104.10561 18062 ft 320 kts 176°
2026-05-01 10:22 1.79055 104.10581 17331 ft 316 kts 176°
2026-05-01 10:23 1.76864 104.10593 16972 ft 314 kts 176°
2026-05-01 10:23 1.72513 104.10616 16253 ft 310 kts 176°
2026-05-01 10:23 1.70352 104.10623 15895 ft 308 kts 176°
2026-05-01 10:24 1.66065 104.10642 15182 ft 304 kts 176°
2026-05-01 10:24 1.61857 104.10674 14482 ft 299 kts 175°
2026-05-01 10:25 1.57753 104.11134 13798 ft 293 kts 167°
2026-05-01 10:25 1.53746 104.11800 13133 ft 289 kts 168°
2026-05-01 10:26 1.51755 104.12104 12808 ft 286 kts 168°
2026-05-01 10:26 1.49795 104.12389 12570 ft 281 kts 168°
2026-05-01 10:26 1.45938 104.12849 11973 ft 278 kts 178°
2026-05-01 10:27 1.42261 104.11771 11241 ft 277 kts 204°
2026-05-01 10:27 1.38820 104.10122 10345 ft 270 kts 202°
2026-05-01 10:28 1.37116 104.09372 9886 ft 268 kts 201°
2026-05-01 10:28 1.33722 104.07934 8987 ft 262 kts 201°
2026-05-01 10:28 1.32051 104.07227 8530 ft 260 kts 201°
2026-05-01 10:29 1.28724 104.05819 7597 ft 257 kts 201°
2026-05-01 10:29 1.27071 104.05118 7196 ft 256 kts 201°
2026-05-01 10:30 1.23764 104.03716 6528 ft 256 kts 201°
2026-05-01 10:30 1.20522 104.02342 5984 ft 251 kts 201°
2026-05-01 10:31 1.17336 104.00942 5434 ft 249 kts 203°
2026-05-01 10:31 1.14401 103.99161 4863 ft 248 kts 232°
2026-05-01 10:32 1.13050 103.96074 4299 ft 242 kts 256°
2026-05-01 10:32 1.12997 103.94408 3985 ft 237 kts 284°
2026-05-01 10:32 1.14899 103.91958 3478 ft 216 kts 320°
2026-05-01 10:33 1.17144 103.90163 3146 ft 195 kts 341°
2026-05-01 10:33 1.19508 103.90843 3009 ft 186 kts 42°
2026-05-01 10:34 1.20578 103.91581 2964 ft 184 kts 30°
2026-05-01 10:34 1.21721 103.92140 2736 ft 183 kts 26°
2026-05-01 10:34 1.22863 103.92659 2519 ft 173 kts 26°
2026-05-01 10:35 1.24968 103.93572 2120 ft 157 kts 25°
2026-05-01 10:35 1.25982 103.94003 1822 ft 159 kts 25°
2026-05-01 10:35 1.26980 103.94418 1683 ft 152 kts 24°
2026-05-01 10:35 1.27978 103.94829 1491 ft 155 kts 24°
2026-05-01 10:36 1.29930 103.95654 1056 ft 150 kts 25°
2026-05-01 10:36 1.30885 103.96081 877 ft 149 kts 25°
2026-05-01 10:36 1.31842 103.96487 680 ft 148 kts 23°
2026-05-01 10:37 1.32808 103.96881 494 ft 149 kts 22°
2026-05-01 10:37 1.34712 103.97677 126 ft 145 kts 23°
2026-05-01 10:37 1.35606 103.98054 29 ft 125 kts 20°
2026-05-01 10:38 1.36203 103.98298 29 ft 63 kts 22°
2026-05-01 10:38 1.36505 103.98425 29 ft 35 kts 22°
2026-05-01 10:38 1.36665 103.98525 29 ft 23 kts 46°
2026-05-01 10:38 1.36756 103.98635 29 ft 15 kts 54°
2026-05-01 10:39 1.36820 103.98717 29 ft 14 kts 52°
2026-05-01 10:39 1.36843 103.98798 29 ft 11 kts 107°
2026-05-01 10:39 1.36811 103.98869 29 ft 10 kts 109°
2026-05-01 10:39 1.36785 103.98937 29 ft 10 kts 114°
2026-05-01 10:40 1.36751 103.99013 29 ft 14 kts 112°
2026-05-01 10:40 1.36703 103.99128 29 ft 20 kts 113°
2026-05-01 10:40 1.36641 103.99272 29 ft 24 kts 112°
2026-05-01 10:40 1.36568 103.99441 29 ft 28 kts 112°
2026-05-01 10:41 1.36492 103.99622 29 ft 21 kts 112°
2026-05-01 10:41 1.36447 103.99703 29 ft 8 kts 157°
2026-05-01 10:41 1.36203 103.99609 29 ft 29 kts 203°
2026-05-01 10:42 1.36031 103.99536 29 ft 24 kts 202°
2026-05-01 10:42 1.35898 103.99478 29 ft 11 kts 217°
2026-05-01 10:42 1.35883 103.99410 29 ft 10 kts 271°
2026-05-01 10:42 1.35865 103.99346 29 ft 9 kts 236°
2026-05-01 10:43 1.35829 103.99297 29 ft 8 kts 233°
2026-05-01 10:43 1.35786 103.99240 29 ft 12 kts 230°
2026-05-01 10:43 1.35717 103.99213 29 ft 8 kts 156°
2026-05-01 10:43 1.35693 103.99228 29 ft 1 kts 144°
2026-05-01 10:44 1.35682 103.99236 29 ft 2 kts 143°
2026-05-01 10:44 1.35680 103.99237 29 ft 0 kts 143°